TimeEDT,TemperatureF,Dew PointF,Humidity,Sea Level PressureIn,VisibilityMPH,Wind Direction,Wind SpeedMPH,Gust SpeedMPH,PrecipitationIn,Events,Conditions,WindDirDegrees,DateUTC
12:15 AM,29.7,21.6,72,30.31,10.0,West,3.5,-,N/A,,Clear,280,2013-03-28 04:15:00
12:35 AM,28.9,21.0,72,30.31,10.0,West,3.5,-,N/A,,Clear,260,2013-03-28 04:35:00
12:55 AM,28.0,21.7,77,30.31,10.0,Calm,Calm,-,N/A,,Clear,0,2013-03-28 04:55:00
1:15 AM,28.0,21.7,77,30.31,10.0,Calm,Calm,-,N/A,,Clear,0,2013-03-28 05:15:00
1:35 AM,27.7,21.9,79,30.31,10.0,West,4.6,-,N/A,,Clear,280,2013-03-28 05:35:00
1:55 AM,28.6,21.2,74,30.31,10.0,West,4.6,-,N/A,,Clear,280,2013-03-28 05:55:00
2:15 AM,28.9,20.8,72,30.31,10.0,West,5.8,-,N/A,,Clear,270,2013-03-28 06:15:00
2:35 AM,28.4,20.5,72,30.31,10.0,WNW,3.5,-,N/A,,Clear,290,2013-03-28 06:35:00
2:55 AM,28.9,21.4,73,30.31,10.0,WNW,3.5,-,N/A,,Mostly Cloudy,300,2013-03-28 06:55:00
3:15 AM,29.8,22.3,73,30.31,10.0,NW,5.8,-,N/A,,Mostly Cloudy,310,2013-03-28 07:15:00
3:35 AM,30.2,22.5,73,30.31,10.0,WNW,5.8,-,N/A,,Scattered Clouds,300,2013-03-28 07:35:00
3:55 AM,29.7,22.3,74,30.31,10.0,WNW,4.6,-,N/A,,Clear,300,2013-03-28 07:55:00
4:15 AM,30.0,22.5,73,30.31,10.0,WNW,4.6,-,N/A,,Clear,290,2013-03-28 08:15:00
4:35 AM,30.0,22.5,73,30.31,10.0,West,6.9,-,N/A,,Clear,280,2013-03-28 08:35:00
4:55 AM,29.7,21.9,73,30.31,10.0,WNW,4.6,-,N/A,,Clear,290,2013-03-28 08:55:00
5:15 AM,29.3,21.7,73,30.31,10.0,WNW,4.6,-,N/A,,Clear,290,2013-03-28 09:15:00
5:35 AM,28.8,21.4,74,30.31,10.0,West,4.6,-,N/A,,Clear,280,2013-03-28 09:35:00
5:55 AM,28.2,21.2,75,30.31,10.0,WNW,4.6,-,N/A,,Clear,290,2013-03-28 09:55:00
6:15 AM,28.0,20.8,74,30.31,10.0,West,4.6,-,N/A,,Clear,280,2013-03-28 10:15:00
6:35 AM,27.5,20.8,76,30.32,10.0,WNW,4.6,-,N/A,,Clear,290,2013-03-28 10:35:00
6:55 AM,28.0,21.0,75,30.32,10.0,WNW,5.8,-,N/A,,Clear,290,2013-03-28 10:55:00
7:15 AM,27.5,20.8,76,30.33,10.0,WNW,4.6,-,N/A,,Clear,290,2013-03-28 11:15:00
7:35 AM,26.8,20.1,76,30.33,10.0,WNW,3.5,-,N/A,,Clear,290,2013-03-28 11:35:00
7:55 AM,27.0,20.5,77,30.34,10.0,WNW,4.6,-,N/A,,Clear,290,2013-03-28 11:55:00
8:15 AM,27.0,20.8,78,30.34,10.0,West,4.6,-,N/A,,Clear,280,2013-03-28 12:15:00
8:35 AM,28.4,22.1,77,30.34,10.0,West,3.5,-,N/A,,Clear,280,2013-03-28 12:35:00
8:55 AM,29.8,23.0,76,30.35,10.0,WNW,3.5,-,N/A,,Clear,290,2013-03-28 12:55:00
9:15 AM,31.1,23.0,72,30.35,10.0,WNW,3.5,-,N/A,,Clear,300,2013-03-28 13:15:00
9:35 AM,32.0,23.5,71,30.35,10.0,WNW,3.5,-,N/A,,Clear,300,2013-03-28 13:35:00
9:55 AM,33.8,24.4,69,30.35,10.0,NW,4.6,-,N/A,,Clear,320,2013-03-28 13:55:00
10:15 AM,35.2,23.7,63,30.36,10.0,NNW,5.8,-,N/A,,Clear,330,2013-03-28 14:15:00
10:35 AM,36.7,24.6,62,30.36,10.0,NNW,4.6,-,N/A,,Clear,340,2013-03-28 14:35:00
10:55 AM,37.8,25.3,61,30.36,10.0,NNW,4.6,-,N/A,,Clear,340,2013-03-28 14:55:00
11:15 AM,38.3,24.8,58,30.36,10.0,NW,5.8,-,N/A,,Clear,320,2013-03-28 15:15:00
11:35 AM,38.8,23.2,53,30.36,7.0,NNW,4.6,-,N/A,,Clear,330,2013-03-28 15:35:00
11:55 AM,39.7,23.7,53,30.37,10.0,West,4.6,-,N/A,,Clear,270,2013-03-28 15:55:00
12:15 PM,39.9,21.9,49,30.36,10.0,West,4.6,-,N/A,,Clear,280,2013-03-28 16:15:00
12:35 PM,40.5,23.9,52,30.36,10.0,NW,5.8,-,N/A,,Clear,310,2013-03-28 16:35:00
12:55 PM,40.5,23.4,51,30.37,10.0,West,9.2,-,N/A,,Clear,270,2013-03-28 16:55:00
1:15 PM,41.2,23.0,48,30.36,10.0,West,6.9,-,N/A,,Clear,280,2013-03-28 17:15:00
1:35 PM,41.9,22.8,47,30.36,10.0,WNW,4.6,-,N/A,,Clear,300,2013-03-28 17:35:00
1:55 PM,42.1,22.3,45,30.36,10.0,WSW,3.5,-,N/A,,Clear,250,2013-03-28 17:55:00
2:15 PM,42.6,22.8,46,30.35,10.0,West,4.6,-,N/A,,Clear,270,2013-03-28 18:15:00
2:35 PM,42.8,23.7,47,30.35,10.0,WNW,4.6,-,N/A,,Clear,300,2013-03-28 18:35:00
2:55 PM,43.0,23.7,47,30.34,10.0,NW,5.8,-,N/A,,Clear,310,2013-03-28 18:55:00
3:15 PM,43.3,23.7,46,30.34,10.0,Calm,Calm,-,N/A,,Clear,0,2013-03-28 19:15:00
3:35 PM,44.4,25.5,48,30.33,10.0,NW,6.9,-,N/A,,Clear,320,2013-03-28 19:35:00
3:55 PM,44.8,26.6,49,30.32,10.0,NW,6.9,-,N/A,,Clear,320,2013-03-28 19:55:00
4:15 PM,44.2,24.4,46,30.31,10.0,Calm,Calm,-,N/A,,Clear,0,2013-03-28 20:15:00
4:35 PM,44.8,25.2,46,30.31,10.0,West,6.9,-,N/A,,Clear,280,2013-03-28 20:35:00
4:55 PM,45.0,26.4,48,30.31,10.0,NW,9.2,-,N/A,,Clear,310,2013-03-28 20:55:00
5:15 PM,44.8,24.3,45,30.31,10.0,SW,4.6,-,N/A,,Clear,230,2013-03-28 21:15:00
5:35 PM,45.1,25.0,45,30.30,10.0,West,5.8,-,N/A,,Clear,280,2013-03-28 21:35:00
5:55 PM,45.0,24.6,45,30.30,10.0,West,6.9,-,N/A,,Clear,270,2013-03-28 21:55:00
6:15 PM,45.0,25.7,47,30.30,10.0,NNW,5.8,-,N/A,,Clear,340,2013-03-28 22:15:00
6:35 PM,45.0,25.5,47,30.30,10.0,WNW,4.6,-,N/A,,Clear,300,2013-03-28 22:35:00
6:55 PM,44.6,25.9,48,30.30,10.0,NW,4.6,-,N/A,,Clear,320,2013-03-28 22:55:00
7:15 PM,44.2,25.2,47,30.30,10.0,NNW,3.5,-,N/A,,Clear,330,2013-03-28 23:15:00
7:35 PM,43.7,25.9,50,30.30,10.0,NW,5.8,-,N/A,,Clear,310,2013-03-28 23:35:00
7:55 PM,42.6,26.8,54,30.30,10.0,NNW,4.6,-,N/A,,Clear,330,2013-03-28 23:55:00
8:15 PM,41.2,27.5,58,30.31,10.0,Calm,Calm,-,N/A,,Clear,0,2013-03-29 00:15:00
8:35 PM,40.1,28.8,64,30.30,10.0,Calm,Calm,-,N/A,,Clear,0,2013-03-29 00:35:00
8:55 PM,38.8,27.7,64,30.30,10.0,Calm,Calm,-,N/A,,Clear,0,2013-03-29 00:55:00
9:15 PM,37.4,28.8,71,30.31,10.0,Calm,Calm,-,N/A,,Clear,0,2013-03-29 01:15:00
9:35 PM,36.1,27.0,69,30.31,10.0,Calm,Calm,-,N/A,,Clear,0,2013-03-29 01:35:00
9:55 PM,34.9,27.5,74,30.31,10.0,Calm,Calm,-,N/A,,Clear,0,2013-03-29 01:55:00
10:15 PM,34.7,27.5,75,30.31,10.0,Calm,Calm,-,N/A,,Clear,0,2013-03-29 02:15:00
10:35 PM,34.3,27.0,74,30.31,10.0,Calm,Calm,-,N/A,,Clear,0,2013-03-29 02:35:00
10:55 PM,34.2,27.5,77,30.31,10.0,Calm,Calm,-,N/A,,Clear,0,2013-03-29 02:55:00
11:15 PM,33.4,27.0,77,30.32,10.0,Calm,Calm,-,N/A,,Clear,0,2013-03-29 03:15:00
11:35 PM,33.3,27.3,79,30.31,10.0,Calm,Calm,-,N/A,,Clear,0,2013-03-29 03:35:00
11:55 PM,33.1,27.3,79,30.32,10.0,Calm,Calm,-,N/A,,Clear,0,2013-03-29 03:55:00